Prescott, AZ

12:34 AM MST on March 28, 2017 (GMT -0700)
Love

Weather History for KPRC - June, 2013

Change the Weather History Date:

Monday, June 10, 2013

  Actual Average Record
Temperature  
Mean Temperature 76 °F 69 °F  
Max Temperature 92 °F 85 °F 95 °F (1994)
Min Temperature 59 °F 53 °F 37 °F (1965)
Degree Days  
Heating Degree Days 0    
Month to date heating degree days 0  
Since 1 July heating degree days 3911  
Cooling Degree Days 11    
Month to date cooling degree days 98  
Year to date cooling degree days 141  
Growing Degree Days 25 (Base 50)    
Moisture  
Dew Point 17 °F    
Average Humidity 13    
Maximum Humidity 33    
Minimum Humidity 4    
Precipitation  
Precipitation 0.00 in 0.00 in 0.35 in (1957)
Month to date precipitation 0.00 0.08  
Year to date precipitation 2.51 4.62  
Sea Level Pressure  
Sea Level Pressure 29.80 in    
Wind  
Wind Speed 10 mph (SSW)    
Max Wind Speed 25 mph    
Max Gust Speed 33 mph    
Visibility 10 miles    
Events      
T = Trace of Precipitation, MM = Missing Value Source: NWS Daily Summary

Daily Weather History Graph

Daily Weather History Graph

Search for Another Location

Airport or City:

Trip Planner

Search our weather history database for the weather conditions in past years. The results will help you decide how hot, cold, wet, or windy it might be!

Date:

Astronomy

Jun. 10, 2013 Rise Set
Actual Time 5:16 AM MST 7:42 PM MST
Civil Twilight 4:46 AM MST 8:11 PM MST
Nautical Twilight 4:10 AM MST 8:48 PM MST
Astronomical Twilight 3:30 AM MST 9:27 PM MST
Moon 7:04 AM MST (6/10) 9:15 PM MST (6/10)
Length of Visible Light 15h 25m
Length of Day
14h 26m
Waxing Crescent, 4% of the Moon is Illuminated
Jun 10
Waxing Crescent
Jun 16
First Quarter
Jun 23
Full
Jun 29
Last Quarter
Jul 8
New

Hourly Weather History & Observations

Time (MST) Temp. Dew Point Humidity Pressure Visibility Wind Dir Wind Speed Gust Speed Precip Events Conditions
12:53 AM 64.9 °F 32.0 °F 29% 29.80 in 10.0 mi SSW 6.9 mph - N/A   Clear
1:53 AM 64.0 °F 32.0 °F 30% 29.80 in 10.0 mi South 5.8 mph - N/A   Clear
2:53 AM 64.0 °F 28.0 °F 26% 29.80 in 10.0 mi South 6.9 mph - N/A   Clear
3:53 AM 64.0 °F 28.0 °F 26% 29.80 in 10.0 mi SSW 9.2 mph - N/A   Clear
4:53 AM 62.1 °F 28.9 °F 29% 29.81 in 10.0 mi South 9.2 mph - N/A   Clear
5:53 AM 59.0 °F 30.0 °F 33% 29.84 in 10.0 mi South 6.9 mph - N/A   Clear
8:53 AM 84.0 °F 24.1 °F 11% 29.83 in 10.0 mi ESE 5.8 mph - N/A   Clear
9:53 AM 88.0 °F 7.0 °F 5% 29.83 in 10.0 mi SSW 11.5 mph 18.4 mph N/A   Clear
10:53 AM 88.0 °F 7.0 °F 5% 29.83 in 10.0 mi South 11.5 mph 23.0 mph N/A   Clear
11:53 AM 90.0 °F 10.0 °F 5% 29.83 in 10.0 mi SSW 16.1 mph 21.9 mph N/A   Clear
12:53 PM 91.0 °F 15.1 °F 6% 29.83 in 10.0 mi SW 15.0 mph 24.2 mph N/A   Clear
1:53 PM 90.0 °F 12.9 °F 6% 29.81 in 10.0 mi SSW 13.8 mph 26.5 mph N/A   Clear
2:53 PM 91.0 °F 8.1 °F 4% 29.79 in 10.0 mi SW 11.5 mph 24.2 mph N/A   Clear
3:53 PM 91.0 °F 7.0 °F 4% 29.78 in 10.0 mi SSW 16.1 mph 29.9 mph N/A   Clear
4:53 PM 90.0 °F 3.9 °F 4% 29.78 in 10.0 mi SW 16.1 mph 27.6 mph N/A   Clear
5:53 PM 88.0 °F 6.1 °F 5% 29.78 in 10.0 mi SW 17.3 mph 26.5 mph N/A   Clear
6:53 PM 84.0 °F 6.1 °F 5% 29.77 in 10.0 mi SSW 13.8 mph 24.2 mph N/A   Clear
7:53 PM 81.0 °F 9.0 °F 6% 29.75 in 10.0 mi SSW 6.9 mph - N/A   Clear
8:53 PM 75.9 °F 16.0 °F 10% 29.77 in 10.0 mi South 5.8 mph - N/A   Clear
9:53 PM 73.9 °F 16.0 °F 11% 29.78 in 10.0 mi SSW 5.8 mph - N/A   Clear
10:53 PM 72.0 °F 15.1 °F 11% 29.79 in 10.0 mi SW 9.2 mph - N/A   Clear
11:53 PM 70.0 °F 25.0 °F 18% 29.79 in 10.0 mi SSW 6.9 mph - N/A   Clear